ROMMA est une association bénévole à but non lucratif. Votre soutien est indispensable : ADHERER à ROMMA ou FAIRE un DON

Crêts du Salève - (74, Haute-Savoie)

Salève (1270 m)   Longitude: 6° 10' 28'' E   Latitude: 46° 7' 42'' N Station romma n°73
 

Détail journalier du     <<     >>

Température Precipitation Humidité Vent Dir Rafale Dir. rafale Ensol.
Heure (°C) (mm) (%) (km/h) (km/h) (min)
01:00 7.90673OSO8OSO0
02:00 7.8070000
03:00 7.40765OSO8OSO0
04:00 7.80715OSO8OSO0
05:00 7.90673OSO6OSO0
06:00 7.90672OSO5OSO0
07:00 7.80701OSO6OSO0
08:00 7.60696OSO11OSO0
09:00 8.90681OSO6OSO60
10:00 10.70712OSO6OSO60
11:00 10.606511SSE26S60
12:00 10.405920SSO39SSO60
13:00 11.306121SSO40SO60
14:00 10.507116SSO26SSO60
15:00 11.307511SO23SO60
16:00 13.40618S24SO60
17:00 14.605118S40S60
18:00 14.704727S53S50
19:00 14.205029S53S0
20:00 15.005132S47SSE0
21:00 14.305437S52SSE0
22:00 14.604935S50SSE0
23:00 15.104540S60S0
minuit 14.205039S55S0

Graphique du 11-10-2019

 

Serveur OMMA